Charlotte, NC

2:34 AM EDT on August 20, 2017 (GMT -0400)
Charlotte-Douglas International

Weather History for KCLT - March, 2012

Change the Weather History Date:

Thursday, March 1, 2012

  Actual Average Record
Temperature  
Mean Temperature 68 °F 47 °F  
Max Temperature 80 °F 59 °F 82 °F (1918)
Min Temperature 56 °F 36 °F 15 °F (1980)
Degree Days  
Heating Degree Days 0 18  
Month to date heating degree days 0 18  
Since 1 July heating degree days 2262 2717  
Cooling Degree Days 3 0  
Month to date cooling degree days 3 0  
Year to date cooling degree days 3 0  
Growing Degree Days 20 (Base 50)    
Moisture  
Dew Point 51 °F    
Average Humidity 57    
Maximum Humidity 90    
Minimum Humidity 23    
Precipitation  
Precipitation 0.00 in 0.13 in 2.18 in (2009)
Month to date precipitation 0.00 0.13  
Year to date precipitation 3.58 6.86  
Snow  
Snow 0.00 in 0.00 in 4.00 in (2009)
Month to date snowfall 0.0 0.0  
Since 1 July snowfall T 3.7  
Snow Depth 0.00 in    
Sea Level Pressure  
Sea Level Pressure 29.83 in    
Wind  
Wind Speed 10 mph (SW)    
Max Wind Speed 20 mph    
Max Gust Speed 30 mph    
Visibility 10 miles    
Events      
T = Trace of Precipitation, MM = Missing Value Source: NWS Daily Summary

Daily Weather History Graph

Daily Weather History Graph

Search for Another Location

Airport or City:

Trip Planner

Search our weather history database for the weather conditions in past years. The results will help you decide how hot, cold, wet, or windy it might be!

Date:

Astronomy

Mar. 01, 2012 Rise Set
Actual Time 6:52 AM EST 6:19 PM EST
Civil Twilight 6:27 AM EST 6:45 PM EST
Nautical Twilight 5:57 AM EST 7:14 PM EST
Astronomical Twilight 5:28 AM EST 7:44 PM EST
Moon 11:48 AM EST (3/1) 1:40 AM EST (3/1)
Length of Visible Light 12h 17m
Length of Day
11h 27m
First Quarter, 56% of the Moon is Illuminated
Mar 1
First Quarter
Mar 8
Full
Mar 14
Last Quarter
Mar 22
New
Mar 30
First Quarter

Hourly Weather History & Observations

Time (EST) Temp. Dew Point Humidity Pressure Visibility Wind Dir Wind Speed Gust Speed Precip Events Conditions
12:10 AM 64.4 °F 60.8 °F 88% 29.85 in 10.0 mi SW 6.9 mph - N/A   Overcast
12:19 AM 64.4 °F 60.8 °F 88% 29.85 in 10.0 mi SW 10.4 mph - N/A   Overcast
12:46 AM 64.4 °F 60.8 °F 88% 29.84 in 10.0 mi SW 12.7 mph 17.3 mph N/A   Overcast
12:52 AM 64.0 °F 60.1 °F 87% 29.83 in 10.0 mi SW 12.7 mph - N/A   Overcast
1:52 AM 64.0 °F 59.0 °F 84% 29.82 in 10.0 mi SW 11.5 mph 24.2 mph N/A   Overcast
2:52 AM 64.0 °F 59.0 °F 84% 29.80 in 10.0 mi WSW 12.7 mph 25.3 mph N/A   Overcast
3:14 AM 64.4 °F 59.0 °F 83% 29.81 in 10.0 mi SW 12.7 mph 25.3 mph N/A   Mostly Cloudy
3:52 AM 64.0 °F 60.1 °F 87% 29.81 in 10.0 mi WSW 10.4 mph 19.6 mph N/A   Mostly Cloudy
4:02 AM 64.4 °F 60.8 °F 88% 29.82 in 10.0 mi WSW 9.2 mph 19.6 mph N/A   Mostly Cloudy
4:52 AM 64.0 °F 60.1 °F 87% 29.81 in 10.0 mi SW 9.2 mph - N/A   Overcast
5:52 AM 64.0 °F 60.1 °F 87% 29.81 in 10.0 mi WSW 8.1 mph - N/A   Overcast
6:40 AM 62.6 °F 59.0 °F 88% 29.85 in 10.0 mi SW 8.1 mph - N/A   Mostly Cloudy
6:52 AM 62.1 °F 59.0 °F 90% 29.83 in 10.0 mi SW 9.2 mph - N/A   Overcast
7:52 AM 62.1 °F 59.0 °F 90% 29.86 in 10.0 mi SW 10.4 mph - N/A   Mostly Cloudy
8:52 AM 66.0 °F 61.0 °F 84% 29.87 in 10.0 mi SW 9.2 mph 18.4 mph N/A   Mostly Cloudy
9:52 AM 68.0 °F 59.0 °F 73% 29.87 in 10.0 mi WSW 15.0 mph 21.9 mph N/A   Scattered Clouds
10:10 AM 69.8 °F 59.0 °F 68% 29.88 in 10.0 mi WSW 12.7 mph 20.7 mph N/A   Mostly Cloudy
10:52 AM 71.1 °F 55.0 °F 57% 29.86 in 10.0 mi West 11.5 mph 21.9 mph N/A   Mostly Cloudy
11:52 AM 75.0 °F 52.0 °F 44% 29.84 in 10.0 mi WSW 15.0 mph - N/A   Scattered Clouds
12:52 PM 78.1 °F 48.9 °F 36% 29.81 in 10.0 mi West 13.8 mph 20.7 mph N/A   Clear
1:52 PM 79.0 °F 42.1 °F 27% 29.78 in 10.0 mi WSW 15.0 mph 24.2 mph N/A   Clear
2:52 PM 79.0 °F 39.0 °F 24% 29.76 in 10.0 mi West 12.7 mph 19.6 mph N/A   Clear
3:52 PM 79.0 °F 37.0 °F 22% 29.77 in 10.0 mi WSW 11.5 mph 20.7 mph N/A   Clear
4:52 PM 77.0 °F 37.0 °F 24% 29.77 in 10.0 mi SW 11.5 mph - N/A   Clear
5:52 PM 73.9 °F 34.0 °F 23% 29.79 in 10.0 mi SW 8.1 mph - N/A   Clear
6:52 PM 66.9 °F 34.0 °F 30% 29.81 in 10.0 mi SW 5.8 mph - N/A   Clear
7:52 PM 63.0 °F 37.9 °F 40% 29.83 in 10.0 mi South 5.8 mph - N/A   Clear
8:52 PM 66.0 °F 37.9 °F 36% 29.84 in 10.0 mi SW 8.1 mph - N/A   Clear
9:52 PM 66.0 °F 39.0 °F 37% 29.85 in 10.0 mi WSW 9.2 mph - N/A   Clear
10:52 PM 61.0 °F 39.0 °F 44% 29.87 in 10.0 mi Calm Calm - N/A   Partly Cloudy
11:52 PM 60.1 °F 39.9 °F 47% 29.88 in 10.0 mi SW 3.5 mph - N/A   Partly Cloudy